Regional Weather Roundup
Issued by NWS

Home | Current Version | Previous Version | Graphics & Text | Print | Product List | Glossary Off
Versions: 1 2 3 4 5 6 7 8 9 10 11 12 13 14 15 16 17 18 19 20 21 22 23 24 25 26 27 28 29 30 31 32 33 34 35 36 37 38 39 40 41 42 43 44 45 46 47 48 49 50

080
ASUS43 KTOP 180008
RWRKS

WEATHER ROUNDUP FOR KANSAS
NATIONAL WEATHER SERVICE GOODLAND KS
600 PM CST TUE JAN 17 2017

NOTE:  "FAIR" INDICATES FEW OR NO CLOUDS BELOW 12,000 FEET WITH NO
SIGNIFICANT WEATHER AND/OR OBSTRUCTIONS TO VISIBILITY.

KSZ001>006-013>018-027>032-041>047-180100-
NORTHWEST KANSAS

CITY           SKY/WX    TMP DP  RH WIND       PRES   REMARKS
GOODLAND       CLEAR     37  32  82 SW5       30.03F
6HR MIN TEMP:  37; 6HR MAX TEMP:  46;

HAYS           CLEAR     42  31  64 S5        30.08F
HILL CITY      CLEAR     42  30  62 CALM      30.07F
6HR MIN TEMP:  39; 6HR MAX TEMP:  50;

RUSSELL        CLEAR     42  32  67 CALM      30.08S
6HR MIN TEMP:  35; 6HR MAX TEMP:  46;

$$

KSZ061>065-074>080-084>089-180100-
SOUTHWEST KANSAS

CITY           SKY/WX    TMP DP  RH WIND       PRES   REMARKS
DODGE CITY     CLEAR     40  33  76 CALM      30.08S
6HR MIN TEMP:  40; 6HR MAX TEMP:  49;

ELKHART          N/A     41  31  68 SE6         N/A
GARDEN CITY    CLEAR     43  32  65 CALM      30.06S
6HR MIN TEMP:  39; 6HR MAX TEMP:  48;

GREAT BEND     CLEAR     40  33  76 CALM      30.10S
LIBERAL        CLEAR     46  32  57 S6        30.09R
PRATT          CLEAR     41  30  64 E3        30.10S
6HR MIN TEMP:  40; 6HR MAX TEMP:  47;

$$

KSZ066>073-081>083-090>101-180100-
SOUTHEAST KANSAS

CITY           SKY/WX    TMP DP  RH WIND       PRES   REMARKS
CHANUTE        CLEAR     37  34  89 SE7       30.16R
6HR MIN TEMP:  37; 6HR MAX TEMP:  46;

COFFEYVILLE    CLEAR     40  35  83 SE6       30.18R
HUTCHINSON     CLEAR     40  30  67 CALM      30.11R
6HR MIN TEMP:  40; 6HR MAX TEMP:  50;

MEDICINE LODGE   N/A     47  33  58 E7        30.12R
NEWTON         CLEAR     42  33  70 CALM      30.12R
PARSONS        CLEAR     40  35  83 SE5       30.17R
6HR MIN TEMP:  40; 6HR MAX TEMP:  44;

WICHITA INTL   PTCLDY    46  31  55 CALM      30.12R
6HR MIN TEMP:  43; 6HR MAX TEMP:  51;

WICHITA JABRA  CLEAR     45  32  60 CALM      30.12R
6HR MIN TEMP:  42; 6HR MAX TEMP:  50;

WICHITA MCCONL CLEAR     46  30  53 CALM      30.12R
WINFIELD       CLEAR     43  33  68 S6        30.16R
6HR MIN TEMP:  42; 6HR MAX TEMP:  51;

$$

KSZ007>012-019>026-033>040-048>060-102>105-180100-
NORTHEAST KANSAS

CITY           SKY/WX    TMP DP  RH WIND       PRES   REMARKS
CONCORDIA      CLEAR     38  30  73 CALM      30.09F
6HR MIN TEMP:  34; 6HR MAX TEMP:  42;

EMPORIA        CLEAR     44  30  57 W3        30.11R
6HR MIN TEMP:  41; 6HR MAX TEMP:  50;

LAWRENCE       CLEAR     36  33  89 SE3       30.13R
6HR MIN TEMP:  36; 6HR MAX TEMP:  44;

MANHATTAN      CLEAR     39  28  64 CALM      30.11F
6HR MIN TEMP:  37; 6HR MAX TEMP:  46;

MARYSVILLE     CLEAR     36  32  87 W3        30.11S
OLATHE IND     CLEAR     35  34  96 SE5       30.14R
6HR MIN TEMP:  35; 6HR MAX TEMP:  41;

OLATHE EXE     CLEAR     35  35 100 E3        30.13R
6HR MIN TEMP:  34; 6HR MAX TEMP:  39;

SALINA         CLEAR     41  30  65 NW3       30.11S
6HR MIN TEMP:  39; 6HR MAX TEMP:  46;

TOPEKA BILLARD CLEAR     40  32  73 CALM      30.12R
6HR MIN TEMP:  38; 6HR MAX TEMP:  47;

TOPEKA FORBES  CLEAR     40  30  67 N3        30.12R
6HR MIN TEMP:  39; 6HR MAX TEMP:  48;

$$




USA.gov is the U.S. government's official web portal to all federal, state and local government web resources and services.